Location: Crescent
(42.8242°N, 73.7329°W)
Time: 05:28:17
(UTC+00:00)

Explorer 7 - Pass Details

Date: 25 February 2026
Orbit: 430 x 542 km, 50.2° (Epoch: 5 March)

Event Time Altitude Azimuth Distance (km) Brightness Sun altitude
Rises 21:27:20 0° 301° (WNW) 2,457 10.7 11.7°
Reaches altitude 10° 21:29:31 10° 309° (NW) 1,600 9.6 11.4°
Maximum altitude 21:32:58 41° 21° (NNE) 689 7.1 10.8°
Drops below altitude 10° 21:36:32 10° 93° (E) 1,657 8.8 10.2°
Sets 21:38:49 0° 101° (E) 2,558 9.7 9.8°
